Regional Weather Roundup
Issued by NWS

Home | Current Version | Previous Version | Text Only | Print | Product List | Glossary On
Versions: 1 2 3 4 5 6 7 8 9 10 11 12 13 14 15 16 17 18 19 20 21 22 23 24 25 26 27 28 29 30 31 32 33 34 35 36 37 38 39 40 41 42 43 44 45 46 47 48 49 50
000
ASUS44 KLIX 280710
RWRLA
LOUISIANA WEATHER ROUNDUP
NATIONAL WEATHER SERVICE NEW ORLEANS LA
200 AM CDT MON JUL 28 2014

NOTE: "FAIR" INDICATES FEW OR NO CLOUDS BELOW 12,000 FEET WITH NO
      SIGNIFICANT WEATHER AND/OR OBSTRUCTIONS TO VISIBILITY.
      SKY/WX - SKY CONDITION AND SIGNIFICANT WEATHER.
      TMP - AIR TEMPERATURE.    DP   - DEWPOINT TEMPERATURE.
      RH  - RELATIVE HUMIDITY.  PRES - PRESSURE.
      HX  - HEAT INDEX.         WCI  - WIND CHILL INDEX.

*  THESE STATIONS ARE NOT NWS OR FAA STATIONS AND ARE NOT UNDER
   NWS QUALITY CONTROL.

LAZ040-048-061>063-065-066-069-280800-
SOUTHEAST LOUISIANA

CITY           SKY/WX    TMP DP  RH WIND       PRES   REMARKS
N.O. AUDUBON     N/A     81  78  92 MISG        N/A
N.O. INTL ARPT PTCLDY    81  77  88 W8        30.03F
N.O. LAKEFRONT CLEAR     83  77  82 SW12      30.04F
N.O. DOWNTOWN* FAIR      82  73  74 SW3       30.04F
SLIDELL        CLEAR     83  77  82 SW5       30.02F
BATON ROUGE    CLEAR     80  75  84 SW8       30.04F
BOOTHVILLE     PTCLDY    83  77  82 W9        30.06F
BELLE CHASSE   CLEAR     82  75  79 W6        30.03F
BOGALUSA*      FAIR      80  75  84 W3        30.03F
GALLIANO*      NOT AVBL
NEW ROADS*     FAIR      78  75  89 SW5       30.03F
GONZALES*      FAIR      79  79  99 CALM      30.04F
HAMMOND*       CLEAR     81  75  83 SW7       30.05S
HOUMA*         CLEAR     80  75  84 CALM      30.05F
PORT FOURCHON* MOSUNNY   84  75  74 W9G15     30.07F

$$

LAZ041-044-053-054-280800-
SOUTHWEST LOUISIANA

CITY           SKY/WX    TMP DP  RH WIND       PRES   REMARKS
LAKE CHARLES   CLEAR     81  76  84 SW6       30.04F
LAFAYETTE      CLEAR     80  76  87 SW5       30.05F
PATTERSON      CLEAR     77  75  94 SW5       30.09F
SALT POINT       N/A     87  76  69 VRB6      30.05F HX  97
NEW IBERIA     CLEAR     79  75  87 SW3       30.06F
CHENAULT AIRPK CLEAR     82  75  81 SW5       30.05F

$$

LAZ027-028-280800-
CENTRAL LOUISIANA

CITY           SKY/WX    TMP DP  RH WIND       PRES   REMARKS
FORT POLK      CLEAR     79  75  87 VRB5      30.04F
ALEXANDRIA INT PTCLDY    80  75  84 W6        30.02R
ALEXANDRIA     CLEAR     80  75  84 SW5       30.03S

$$

LAZ001-002-280800-
NORTHWEST LOUISIANA

CITY           SKY/WX    TMP DP  RH WIND       PRES   REMARKS
SHREVEPORT     MOCLDY    79  73  82 SW3       30.01F
BARKSDALE AFB  MOCLDY    82  73  72 S2        30.01F
DTN SHREVEPORT PTCLDY    83  72  69 SW6       30.01F

$$

LAZ014-016-280800-
NORTHEAST LOUISIANA

CITY           SKY/WX    TMP DP  RH WIND       PRES   REMARKS
MONROE         PTCLDY    83  73  72 W7        30.00F
TALLULAH       CLEAR     75  73  93 CALM      30.00S

$$




USA.gov is the U.S. government's official web portal to all federal, state and local government web resources and services.